Wind_Speed
17 17 17 17 16 16 16 16 16 15 15 15 14 14 13 13 13 13 13 12 12 12 13 13 13 13 13 13 13 14 14 14 14 14 14 14 14 14 14 14 15 16 16 16 16 15 15 15 14 14 15 14
16 15 16 15 15 15 14 14 13 13 13 12 11 11 11 11 10 10 10 11 11 11 11 12 13 12 12 11 11 12 12 12 13 13 13 13 13 13 12 12 13 14 14 15 14 13 14 14 13 12 13 13
16 15 15 15 14 14 14 13 12 12 11 11 10 10 10 9 9 9 9 9 10 10 10 10 11 11 11 10 10 10 11 11 12 13 13 12 11 11 10 10 11 12 12 12 12 12 13 13 12 11 11 11
16 15 15 14 14 13 13 12 11 11 10 9 9 8 9 8 8 8 9 9 9 9 8 9 8 9 9 10 10 10 10 11 11 11 12 10 10 10 9 10 10 11 11 11 11 12 12 12 11 11 12 11
17 16 15 14 14 13 12 11 11 10 9 8 7 7 7 8 7 7 8 8 8 7 7 7 7 7 9 10 9 9 9 9 9 9 10 8 9 9 9 10 10 10 10 11 12 12 12 11 11 11 11 11
17 16 15 14 13 12 12 11 10 9 8 7 6 5 5 6 6 6 6 6 6 5 5 6 6 7 8 9 8 8 8 7 7 7 8 7 8 9 9 9 10 10 10 11 12 12 12 11 11 11 11 11
17 16 15 14 13 12 11 11 9 8 8 7 6 5 4 4 5 6 5 4 4 4 4 5 6 6 7 7 7 7 7 6 6 6 7 7 8 8 9 10 10 10 10 11 12 12 12 12 12 12 12 12
17 17 16 15 13 12 12 11 10 9 7 7 5 5 5 3 4 5 5 3 3 3 4 5 4 5 6 6 6 6 6 5 6 6 6 7 7 8 9 10 10 10 10 11 12 12 12 12 12 11 12 12
18 18 17 15 14 14 13 12 11 10 8 8 6 6 6 5 4 5 4 2 2 2 2 3 3 4 5 5 5 5 5 5 5 6 6 7 7 8 8 10 10 10 10 11 12 13 13 12 11 11 12 12
18 18 18 16 16 15 15 14 12 11 10 9 7 7 7 7 7 6 4 2 2 1 1 1 2 4 4 4 4 4 4 4 5 6 6 7 7 8 8 9 10 9 10 10 11 12 12 12 12 12 12 11
18 19 18 17 17 17 16 15 14 13 12 10 9 8 8 8 8 7 5 4 3 3 2 0 2 3 3 3 2 3 3 3 4 5 5 6 6 7 7 8 9 9 9 9 11 12 12 12 12 12 12 12
20 19 18 18 17 17 17 16 15 14 12 12 10 9 9 9 9 8 7 6 5 4 3 2 3 3 3 2 1 1 2 2 3 4 4 5 5 5 6 7 8 8 8 9 10 11 11 11 11 11 11 11
21 20 19 19 19 18 18 17 16 14 13 12 11 10 10 11 11 10 9 8 7 6 4 3 4 4 3 2 0 0 1 1 2 3 4 4 4 5 5 6 8 7 7 8 8 10 10 11 11 10 10 11
23 22 21 21 21 20 20 19 17 16 15 14 13 12 12 12 12 12 11 10 9 7 6 5 5 5 4 3 2 2 1 2 2 3 3 3 4 4 5 5 6 6 6 6 7 8 9 10 9 9 9 10
25 24 24 23 23 22 22 21 19 18 17 16 15 14 14 14 13 13 12 11 10 9 8 7 6 6 5 4 3 3 3 3 3 3 3 3 3 4 4 4 4 5 5 5 6 7 8 8 8 8 8 8
27 26 25 25 25 24 24 23 21 20 20 18 17 15 15 16 15 14 13 12 11 10 9 9 8 7 7 5 4 4 4 4 3 3 2 2 3 3 3 3 3 3 4 4 5 7 7 7 6 6 6 6
27 27 27 27 27 26 26 25 23 22 22 20 19 17 17 17 17 15 15 14 13 12 11 10 10 9 8 6 6 5 5 4 3 3 2 2 2 2 2 2 2 3 3 4 5 6 7 6 5 5 5 4
29 29 28 28 27 27 28 26 25 24 23 22 21 19 19 19 18 17 16 15 15 13 12 12 11 10 8 8 7 6 6 5 5 4 3 2 2 2 1 1 1 2 2 4 5 6 6 5 5 5 5 3
30 30 29 28 28 28 28 27 26 26 25 24 23 21 20 20 19 19 18 16 15 14 13 13 13 11 10 9 8 8 7 6 6 5 3 3 3 2 1 1 1 1 2 3 5 6 5 4 4 5 5 3
31 30 29 29 29 29 29 28 27 27 26 26 24 23 21 21 20 20 19 17 16 16 15 14 14 12 11 11 10 9 9 8 6 6 4 3 3 2 1 1 0 1 2 3 5 5 4 4 5 5 5 3
31 31 30 30 29 29 29 28 28 28 27 27 26 25 23 22 22 21 20 18 18 18 17 16 15 14 13 13 11 11 11 9 8 7 6 4 4 3 2 1 0 1 2 4 5 5 4 4 5 5 3 3
32 32 31 30 30 30 29 29 29 28 29 29 28 27 25 24 24 23 22 21 20 20 19 18 16 15 15 15 14 13 13 12 11 9 8 6 5 4 3 2 1 1 2 4 4 4 4 5 5 4 2 0
32 32 31 31 30 30 30 30 30 30 30 31 30 29 27 27 26 25 24 23 23 21 21 20 18 17 17 17 16 16 15 14 13 12 10 8 7 6 5 3 2 1 1 3 3 4 5 6 5 3 2 2
33 32 32 32 31 32 33 32 31 31 32 32 32 31 29 29 28 26 26 26 25 23 23 22 21 20 20 19 19 19 18 16 15 14 12 10 9 8 7 5 3 2 1 3 3 4 6 5 3 1 1 4
37 36 35 35 36 36 36 34 33 33 34 33 33 32 31 31 29 28 28 28 27 26 26 25 23 23 22 22 22 21 19 17 16 14 13 12 11 10 9 7 6 4 3 2 3 4 6 4 1 2 3 6
41 41 40 39 39 39 37 36 36 36 36 36 35 34 33 33 32 31 30 30 30 29 28 28 27 26 25 25 24 22 20 18 18 16 15 15 13 12 10 8 8 7 5 3 1 2 5 4 1 1 3 5
44 44 43 41 39 38 37 37 37 37 37 36 36 36 36 36 35 34 33 33 32 32 32 31 30 29 28 27 26 25 23 22 21 19 18 17 15 14 12 10 10 10 8 6 3 2 1 2 2 2 2 3
45 43 41 40 38 36 36 35 35 36 36 37 38 38 38 39 39 38 37 36 36 35 35 34 33 32 31 30 29 28 27 26 24 23 22 20 18 17 16 15 14 13 10 9 6 4 2 1 2 1 2 2
43 40 39 37 34 31 31 32 32 34 37 39 40 41 42 43 42 40 39 39 38 38 37 36 35 34 33 33 32 31 30 28 26 25 24 23 22 20 19 18 17 16 14 12 10 8 5 2 1 2 1 1
42 41 39 38 35 33 32 32 34 39 42 42 43 44 44 44 43 42 42 41 41 40 40 39 38 37 36 35 34 34 33 30 28 28 27 25 24 22 19 18 19 20 19 15 14 13 10 7 6 6 5 2
41 41 40 40 41 40 38 37 40 44 43 42 43 43 42 43 44 44 44 43 43 42 42 41 40 40 39 38 37 36 35 34 32 31 29 27 26 24 21 21 22 23 23 19 17 17 15 13 13 11 8 5
Wind_Direction
125 126 126 124 124 124 123 123 122 120 118 116 114 112 110 107 105 102 98 94 93 92 88 80 71 68 66 64 60 57 55 52 49 47 47 47 50 53 51 49 50 47 45 51 53 53 53 56 63 62 58 54
133 133 132 131 129 127 127 127 126 125 124 122 121 116 113 109 106 105 102 99 96 94 91 85 76 67 62 58 54 52 52 51 49 48 47 47 52 57 57 56 59 53 49 54 55 53 52 58 68 68 61 56
140 140 139 137 135 132 129 129 128 129 128 126 123 119 114 108 106 104 100 99 96 91 86 82 77 68 59 50 46 50 51 51 48 50 52 49 52 57 56 59 66 65 60 59 56 54 53 60 70 71 65 59
146 147 146 143 140 136 133 132 132 131 130 128 125 125 119 109 106 105 101 99 95 90 84 75 70 67 62 50 44 47 50 52 47 49 55 51 50 52 53 57 64 70 70 65 57 55 55 60 66 66 65 61
153 152 151 148 144 141 139 137 136 136 133 131 129 130 120 107 104 106 106 102 96 95 89 77 71 68 59 51 46 41 45 55 52 50 57 54 51 54 56 59 62 66 71 69 61 56 56 60 62 60 63 60
159 157 157 155 152 149 147 145 143 140 137 135 134 130 117 109 111 112 110 102 98 99 90 75 68 56 42 41 41 36 41 55 59 55 59 57 53 56 59 59 60 63 66 67 63 57 55 58 59 58 59 57
165 164 164 161 159 157 156 155 152 149 146 146 144 136 127 123 128 127 117 104 93 84 73 63 52 38 27 26 25 30 39 49 59 60 60 60 56 55 56 56 55 57 60 62 61 56 53 54 56 57 56 54
173 170 168 166 166 167 167 166 163 162 161 160 158 149 148 156 154 141 126 107 88 69 61 55 37 18 13 14 15 26 38 43 57 61 59 61 60 56 56 56 52 52 54 56 55 52 50 49 52 53 53 51
179 174 171 173 175 175 175 175 174 173 173 175 174 167 167 176 179 165 145 120 96 74 66 50 13 359 2 5 11 29 39 42 55 59 57 56 57 56 55 55 51 49 50 51 51 49 48 46 47 49 50 49
182 177 179 183 183 182 182 182 181 180 183 184 182 182 184 183 185 187 178 163 167 172 129 53 341 341 349 354 6 29 42 45 55 58 57 55 56 56 55 55 51 47 48 49 47 46 46 43 44 47 48 48
186 185 189 191 190 190 188 186 186 187 188 188 188 193 197 192 191 197 205 208 205 203 191 264 305 314 326 340 356 23 46 51 62 66 61 58 59 59 58 58 53 47 47 45 42 41 41 40 41 45 45 46
191 191 192 194 195 196 194 193 193 195 193 191 195 199 201 199 198 203 214 219 220 218 222 251 272 284 296 308 342 23 57 65 76 80 74 68 66 65 62 63 57 49 47 43 36 34 35 36 37 41 41 42
193 192 194 197 198 197 197 198 200 203 201 198 202 203 203 205 204 209 215 217 218 223 232 241 250 258 266 269 273 104 93 99 100 96 90 81 76 72 65 64 60 53 49 44 33 29 30 31 32 35 36 36
193 194 197 199 200 200 198 201 205 208 206 204 208 208 207 209 210 214 217 217 217 221 232 237 238 243 246 243 208 193 179 155 147 120 106 97 91 85 76 67 63 57 52 45 34 29 27 27 27 29 32 33
196 198 201 201 201 201 201 203 207 210 210 209 211 212 212 212 213 218 220 219 220 222 229 234 235 236 240 238 208 197 190 178 173 137 119 110 98 93 90 78 66 61 57 50 39 32 27 25 22 24 29 31
200 202 204 204 202 203 204 206 209 211 212 213 214 215 214 213 215 219 221 219 221 225 230 231 230 230 234 230 210 201 197 195 186 149 129 118 105 101 102 92 78 68 60 51 40 31 26 23 19 24 27 30
204 207 207 207 206 206 206 208 212 212 214 217 218 219 216 216 218 220 220 218 219 223 226 226 224 226 224 219 212 203 202 208 195 165 154 139 122 118 113 95 85 77 59 46 35 25 19 17 19 30 30 38
207 209 209 210 210 210 210 211 213 214 216 220 220 220 219 219 221 221 219 217 217 218 221 220 220 224 219 213 213 203 204 212 197 182 182 163 151 145 127 95 78 57 43 36 29 20 13 15 25 31 32 50
209 210 211 212 212 212 213 214 214 215 217 220 221 221 221 221 220 221 220 218 217 218 220 219 220 222 214 210 211 203 204 209 197 188 189 180 170 155 128 106 45 11 23 25 21 15 10 18 26 27 30 49
210 212 212 213 213 214 215 215 215 217 218 221 222 223 224 223 220 221 222 219 219 221 220 218 219 218 210 209 207 201 204 206 198 188 189 192 181 170 165 140 347 346 13 17 13 10 8 16 17 19 29 43
210 211 212 212 213 215 217 216 217 218 219 221 223 225 227 225 222 222 222 221 220 222 221 218 218 212 205 206 203 200 202 200 194 188 188 191 183 180 179 169 254 314 9 13 8 6 359 1 2 5 14 38
210 211 212 213 214 216 218 219 219 219 220 222 224 226 228 227 224 222 222 222 221 220 219 218 217 211 204 205 201 198 200 196 189 185 185 184 180 179 174 169 191 251 3 6 4 358 345 348 349 337 320 353
210 211 212 213 214 217 219 220 219 220 221 223 225 227 229 228 224 222 222 222 221 219 216 216 216 211 206 204 200 198 198 194 188 184 183 180 178 179 174 170 176 193 347 351 343 337 338 342 335 310 281 238
207 208 209 210 212 214 217 218 218 219 222 223 225 227 228 228 225 223 222 221 221 218 215 216 217 211 207 205 202 200 200 196 190 185 183 180 179 178 172 171 174 182 247 311 311 324 339 340 317 280 248 235
206 205 205 206 209 212 214 215 216 217 220 223 225 227 227 228 227 225 224 222 220 218 216 217 217 213 208 206 205 205 203 199 193 187 185 184 183 180 175 176 179 184 210 282 308 326 338 343 263 242 265 244
208 208 208 208 210 212 213 214 215 216 219 222 224 226 228 229 229 227 227 224 220 219 218 217 216 213 209 208 207 206 204 200 197 193 190 189 187 184 181 181 183 188 198 208 237 344 344 353 6 280 278 235
212 213 213 213 214 214 214 217 219 221 223 224 224 226 228 230 230 228 228 226 221 220 220 219 217 215 212 210 209 205 202 201 201 199 196 196 194 188 184 187 190 195 199 193 167 81 21 338 11 359 357 160
216 216 215 216 218 218 218 221 223 224 225 225 224 225 227 229 230 228 228 227 223 221 221 220 219 217 214 212 211 208 205 204 203 202 201 200 198 193 189 191 195 200 203 198 181 135 129 95 68 304 351 114
215 215 215 214 215 217 218 221 221 219 221 222 222 223 225 227 228 227 228 228 225 222 221 221 219 218 216 213 212 211 211 211 209 207 205 202 201 201 199 197 195 198 204 204 197 181 160 119 111 217 217 42
214 213 212 210 208 209 210 213 216 217 219 219 219 221 223 224 226 226 227 227 226 223 222 221 220 219 218 215 214 213 214 215 213 211 208 206 206 206 205 202 196 195 201 205 206 202 195 201 209 196 164 116
213 213 213 212 211 211 211 213 218 221 222 221 221 222 222 223 224 225 226 226 226 224 222 222 221 220 220 218 217 216 216 216 215 214 211 210 211 209 204 203 201 198 196 198 207 210 206 208 212 209 196 180
Height
878 878 878 879 880 880 881 883 884 885 885 886 886 887 887 887 888 888 889 889 889 889 889 889 889 889 889 889 888 888 888 888 887 887 887 886 886 886 885 885 885 884 884 883 883 883 882 882 881 881 881 880
877 878 878 879 879 880 881 882 884 884 885 886 886 886 887 887 887 888 888 888 888 888 888 888 889 889 889 888 888 888 888 888 887 887 887 886 886 886 885 885 885 884 884 884 883 883 882 882 882 881 881 881
877 878 878 878 879 880 881 882 883 884 885 885 886 886 886 887 887 887 888 888 888 888 888 888 888 888 888 888 888 887 887 887 887 887 887 886 886 885 885 885 884 884 884 884 883 883 882 882 882 881 881 881
876 877 878 878 878 879 880 881 882 883 884 885 885 886 886 886 887 887 887 887 887 888 888 888 888 888 888 888 887 887 887 887 887 886 886 886 885 885 884 884 884 884 884 883 883 883 882 882 882 881 881 881
875 876 877 877 878 879 879 881 882 883 883 884 884 885 885 886 886 886 887 887 887 887 887 887 887 887 887 887 887 887 886 886 886 886 886 885 885 884 884 884 884 883 883 883 883 883 882 882 881 881 881 881
874 875 876 876 877 878 879 880 881 882 882 883 883 883 884 885 885 886 886 886 886 886 887 886 886 886 886 886 886 886 886 886 886 885 885 885 884 884 884 883 883 883 883 883 882 882 882 882 881 881 881 881
874 874 875 876 876 877 878 879 880 881 881 882 882 882 883 884 884 885 885 885 886 886 886 886 886 886 886 886 886 886 885 885 885 885 885 885 884 884 884 883 883 883 883 882 882 882 882 881 881 881 881 881
872 873 874 874 875 876 877 878 879 880 880 881 881 882 882 883 883 884 884 885 885 885 885 885 885 885 885 885 885 885 885 885 885 884 884 884 884 884 883 883 883 883 882 882 882 882 882 882 881 881 881 880
871 872 873 873 874 875 876 877 878 879 879 880 880 881 882 882 882 883 883 884 884 884 884 884 884 884 884 884 884 884 884 884 884 884 884 884 883 883 883 883 883 883 882 882 882 882 882 882 881 881 880 880
870 870 871 872 872 873 875 876 877 877 878 879 879 880 880 881 881 882 882 883 883 883 884 884 884 884 884 884 884 884 883 883 883 883 883 883 883 883 883 883 883 882 882 882 882 882 882 881 881 881 880 880
868 869 869 870 871 872 873 874 875 876 877 877 878 879 879 880 880 881 881 882 882 883 883 883 883 883 883 883 883 883 883 883 883 883 883 883 882 882 882 882 882 882 882 882 882 882 882 881 881 880 880 880
866 867 868 869 869 870 871 872 873 874 875 876 877 877 878 878 879 879 880 880 881 881 882 882 882 882 882 882 882 882 882 882 882 882 882 882 882 882 882 882 882 882 881 881 881 881 881 881 880 880 880 879
864 865 866 867 867 868 869 870 871 873 874 874 875 876 876 877 878 878 879 879 880 880 880 881 881 881 881 881 881 881 881 881 881 881 881 881 881 881 881 881 881 881 881 881 881 881 880 880 880 880 879 879
862 863 864 865 866 867 868 868 870 871 872 873 874 874 875 876 876 877 877 878 878 879 879 879 879 879 880 880 880 880 880 880 880 880 881 881 880 880 880 880 880 880 880 880 880 880 880 879 879 879 879 879
860 861 862 863 864 865 866 867 868 869 870 871 872 873 873 874 874 875 876 876 876 877 877 878 878 878 878 879 879 879 879 879 879 879 879 880 880 879 879 879 879 880 879 879 879 879 879 879 878 878 878 878
858 859 860 861 862 863 864 865 866 866 867 869 870 871 872 872 873 873 874 875 875 875 876 876 876 877 877 877 878 878 878 878 878 878 878 878 878 878 878 878 878 879 879 878 878 878 878 878 878 877 877 877
855 856 858 858 860 861 861 862 864 864 865 866 868 869 869 870 871 871 872 873 873 873 874 874 874 875 875 875 876 876 876 877 877 877 877 877 877 877 877 877 877 878 877 877 877 877 877 877 877 876 876 876
853 854 855 856 857 858 859 860 861 862 862 863 865 866 867 868 868 869 870 871 871 871 872 872 872 873 873 874 874 875 875 875 875 876 876 876 876 876 876 876 876 876 876 876 876 876 876 875 875 875 875 875
850 851 852 854 855 856 857 858 859 859 860 861 862 863 864 865 866 867 868 868 869 869 870 870 870 871 871 872 872 873 873 873 874 874 874 875 875 875 875 875 875 875 875 875 875 875 874 874 874 874 874 874
848 849 850 851 852 853 854 855 856 857 857 858 859 860 861 862 863 864 865 866 866 867 867 868 868 869 869 870 870 871 871 872 872 873 873 873 874 874 874 874 874 874 874 874 873 873 873 873 873 873 873 873
845 846 847 848 850 851 852 853 853 854 855 855 857 858 858 860 860 861 862 863 864 864 865 866 866 867 867 868 868 869 869 870 870 871 871 872 872 872 872 873 873 873 873 872 872 872 872 872 871 871 871 871
843 844 845 846 847 848 849 850 851 852 852 852 853 854 856 857 858 859 860 861 862 862 862 863 864 864 865 865 866 867 867 868 868 869 869 870 870 870 871 871 871 871 871 871 871 871 871 870 870 870 870 870
841 842 843 844 845 846 846 847 848 849 849 849 850 851 853 853 855 856 857 858 859 859 860 860 861 862 863 863 864 864 865 865 866 866 867 867 867 868 868 869 869 869 870 870 870 870 869 869 868 868 868 869
838 839 840 841 842 842 842 843 844 845 845 846 846 848 849 850 852 853 854 855 855 856 857 857 858 859 860 861 861 861 862 862 862 863 864 864 865 865 866 866 867 867 868 868 868 868 868 867 867 867 867 867
832 833 834 835 836 835 837 839 841 842 842 843 843 844 845 846 848 849 850 851 852 853 853 855 856 857 857 858 858 859 859 860 860 861 861 862 863 863 863 864 864 865 866 866 866 866 865 865 865 865 865 866
826 827 827 828 829 830 832 834 835 837 837 839 840 840 841 842 843 845 846 847 848 849 850 851 852 853 854 854 855 856 857 858 858 858 859 859 860 860 861 861 861 862 863 864 864 864 864 864 864 864 864 864
821 821 823 824 825 827 829 831 832 833 834 836 837 837 837 838 839 840 842 843 844 845 846 847 848 849 850 851 852 853 854 854 854 855 856 856 856 857 858 859 859 859 860 861 862 863 863 863 864 863 863 863
817 819 822 823 825 826 828 829 831 832 833 833 833 833 833 833 834 835 837 838 840 841 842 843 844 845 847 848 849 849 850 850 851 851 852 853 854 854 854 855 856 857 857 858 859 860 862 864 865 863 862 863
815 818 820 822 824 826 827 828 828 828 827 827 827 827 827 827 829 831 832 834 835 836 838 839 840 841 842 844 845 846 846 846 847 848 849 850 850 850 850 851 853 854 854 855 855 856 858 861 863 862 862 863
812 814 815 817 819 820 820 821 820 818 817 818 820 820 821 823 825 826 828 829 831 832 833 834 836 837 838 840 841 841 843 843 844 845 845 846 847 848 848 849 850 850 851 853 853 853 853 854 855 857 860 861
810 811 811 812 812 812 812 812 810 809 811 813 815 816 818 820 821 822 823 825 826 828 829 830 832 833 834 835 836 837 838 839 840 841 842 843 844 845 846 846 846 847 848 850 850 850 850 850 851 853 855 858